period_start,C,m1,H,J0,J1,J2,J3,J4,J5,JA,JB,JC,JD,JJ,JK,JN,#
2015-11-08 00:02:00,0.05,0.29,0.00,12.59,17.27,21.26,15.30,49.07,1026.38,2074.99,3527.12,3276.48,3561.13,600.10,623.73,6.00,0000 0000 0000 0000 000000
2015-11-08 00:07:01,0.03,0.29,0.00,12.62,17.27,21.21,15.25,49.04,1026.31,2074.99,3526.22,3275.97,3560.33,599.68,623.17,6.05,0000 0000 0000 0000 000000
2015-11-08 00:12:03,0.04,0.29,0.00,12.59,17.27,21.23,15.29,49.07,1026.36,2074.98,3525.37,3275.20,3559.58,599.94,623.53,6.10,0000 0000 0000 0000 000000
2015-11-08 00:17:04,0.06,0.30,0.00,12.61,17.27,21.19,15.28,49.07,1026.32,2074.99,3524.21,3274.41,3558.53,599.91,623.59,6.15,0000 0000 0000 0000 000000
2015-11-08 00:22:05,0.05,0.30,0.00,12.62,17.27,21.20,15.29,49.07,1026.24,2074.99,3522.92,3273.02,3557.00,599.89,623.39,6.20,0000 0000 0000 0000 000000
2015-11-08 00:27:06,0.05,0.30,0.00,12.60,17.28,21.25,15.31,49.08,1026.29,2074.98,3521.98,3272.25,3556.13,600.03,623.66,6.25,0000 0000 0000 0000 000000
2015-11-08 00:32:08,0.05,0.31,0.00,12.63,17.28,21.24,15.36,49.05,1026.01,2074.98,3520.98,3271.42,3555.14,600.35,623.76,6.30,0000 0000 0000 0000 000000
2015-11-08 00:37:09,0.04,0.31,0.00,12.62,17.29,21.25,15.31,49.19,1026.15,2074.96,3520.02,3270.73,3554.19,600.17,623.69,6.35,0000 0000 0000 0000 000000
2015-11-08 00:42:10,0.04,0.31,0.00,12.59,17.29,21.29,15.29,49.17,1025.97,2074.98,3519.10,3270.01,3553.36,600.05,623.50,6.40,0000 0000 0000 0000 000000
2015-11-08 00:47:11,0.05,0.31,0.00,12.63,17.29,21.29,15.28,49.24,1025.91,2074.97,3518.21,3269.22,3552.38,599.69,622.95,6.45,0000 0000 0000 0000 000000
2015-11-08 00:52:13,0.05,0.31,0.00,12.62,17.29,21.24,15.26,49.13,1025.90,2074.99,3517.22,3268.50,3551.54,599.96,623.34,6.50,0000 0000 0000 0000 000000
2015-11-08 00:57:15,0.05,0.32,0.00,12.61,17.29,21.29,15.24,49.19,1025.90,2074.96,3516.02,3267.58,3550.40,599.64,623.02,6.55,0000 0000 0000 0000 000000
2015-11-08 01:02:16,0.05,0.32,0.00,12.63,17.29,21.25,15.40,49.19,1025.88,2074.98,3514.87,3266.71,3549.18,600.01,623.28,6.60,0000 0000 0000 0000 000000
2015-11-08 01:07:17,0.08,0.32,0.00,12.62,17.29,21.22,15.34,49.21,1025.80,2074.98,3513.45,3265.23,3547.70,600.02,623.34,6.65,0000 0000 0000 0000 000000
2015-11-08 01:12:19,0.05,0.33,0.00,12.63,17.29,21.22,15.33,49.13,1025.83,2074.99,3512.50,3264.55,3546.59,600.00,623.12,6.70,0000 0000 0000 0000 000000
2015-11-08 01:17:20,0.03,0.33,0.00,12.62,17.29,21.17,15.35,49.11,1025.69,2074.99,3511.52,3263.93,3545.67,599.86,623.13,6.75,0000 0000 0000 0000 000000
2015-11-08 01:22:21,0.04,0.33,0.00,12.63,17.29,21.31,15.29,49.12,1025.63,2074.99,3510.63,3263.12,3544.83,600.17,623.29,6.80,0000 0000 0000 0000 000000
2015-11-08 01:27:22,0.03,0.33,0.00,12.64,17.29,21.21,15.48,49.28,1025.51,2074.98,3509.70,3262.77,3544.03,600.48,623.56,6.85,0000 0000 0000 0000 000000
2015-11-08 01:32:24,0.04,0.34,0.00,12.62,17.29,21.19,15.29,49.17,1025.41,2074.99,3508.73,3261.99,3543.16,600.03,623.02,6.90,0000 0000 0000 0000 000000
2015-11-08 01:37:25,0.07,0.34,0.00,12.63,17.29,21.31,15.28,49.36,1025.34,2074.99,3507.51,3260.97,3541.89,600.21,623.20,6.95,0000 0000 0000 0000 000000
2015-11-08 01:42:26,0.07,0.34,0.00,12.64,17.29,21.25,15.39,49.35,1025.33,2074.99,3506.14,3259.68,3540.35,600.22,623.16,7.00,0000 0000 0000 0000 000000
2015-11-08 01:47:27,0.05,0.34,0.00,12.63,17.29,21.31,15.35,49.41,1025.16,2074.99,3505.11,3258.82,3539.37,600.38,623.22,7.05,0000 0000 0000 0000 000000
2015-11-08 01:52:28,0.05,0.35,0.00,12.64,17.29,21.32,15.30,49.17,1025.27,2074.98,3503.93,3257.86,3538.28,600.17,623.09,7.10,0000 0000 0000 0000 000000
2015-11-08 01:57:30,0.05,0.35,0.00,12.65,17.29,21.27,15.27,49.25,1025.33,2074.99,3502.86,3257.00,3537.24,599.92,622.87,7.15,0000 0000 0000 0000 000000
2015-11-08 02:02:31,0.05,0.35,0.00,12.65,17.29,21.30,15.32,49.30,1025.36,2074.99,3501.82,3256.11,3536.12,600.07,622.92,7.20,0000 0000 0000 0000 000000
2015-11-08 02:07:32,0.09,0.36,0.00,12.64,17.29,21.28,15.30,49.31,1025.27,2074.98,3500.41,3255.08,3534.79,599.85,622.76,7.25,0000 0000 0000 0000 000000
2015-11-08 02:12:33,0.08,0.36,0.00,12.65,17.29,21.26,15.39,49.33,1025.21,2074.98,3498.77,3253.35,3532.92,600.33,623.18,7.30,0000 0000 0000 0000 000000
2015-11-08 02:17:34,0.06,0.36,0.00,12.66,17.29,21.27,15.29,49.35,1024.94,2074.99,3497.59,3252.39,3531.69,599.98,622.68,7.35,0000 0000 0000 0000 000000
2015-11-08 02:22:36,0.09,0.37,0.00,12.64,17.29,21.28,15.22,49.43,1024.93,2074.99,3495.93,3250.85,3529.94,599.78,622.52,7.40,0000 0000 0000 0000 000000
2015-11-08 02:27:37,0.08,0.37,0.00,12.62,17.29,21.35,15.22,49.44,1024.91,2074.99,3494.43,3249.46,3528.33,599.77,622.43,7.45,0000 0000 0000 0000 000000
2015-11-08 02:32:39,0.07,0.38,0.00,12.64,17.29,21.28,15.25,49.39,1024.92,2074.99,3492.85,3248.01,3526.67,599.64,622.23,7.50,0000 0000 0000 0000 000000
2015-11-08 02:37:40,0.09,0.38,0.00,12.64,17.29,21.27,15.30,49.41,1024.92,2074.98,3491.23,3246.52,3524.94,600.14,622.91,7.55,0000 0000 0000 0000 000000
2015-11-08 02:42:41,0.16,0.39,0.00,12.64,17.29,21.27,15.35,49.42,1024.89,2074.99,3488.76,3243.87,3522.05,600.00,622.68,7.60,0000 0000 0000 0000 000000
2015-11-08 02:47:43,0.11,0.40,0.00,12.64,17.29,21.29,15.29,49.41,1024.88,2074.99,3486.61,3241.62,3519.60,600.09,622.76,7.66,0000 0000 0000 0000 000000
2015-11-08 02:52:44,0.16,0.40,0.00,12.64,17.29,21.32,15.31,49.46,1024.87,2074.98,3484.12,3239.05,3516.70,600.24,622.93,7.71,0000 0000 0000 0000 000000
2015-11-08 02:57:46,0.16,0.41,0.00,12.64,17.29,21.34,15.28,49.44,1024.57,2074.98,3481.59,3236.22,3513.54,599.75,622.28,7.76,0000 0000 0000 0000 000000
2015-11-08 03:02:47,0.16,0.42,0.00,12.62,17.29,21.37,15.27,49.33,1024.80,2074.99,3478.87,3233.02,3510.02,600.08,622.74,7.81,0000 0000 0000 0000 000000
2015-11-08 03:07:48,0.12,0.43,0.00,12.62,17.29,21.32,15.27,49.38,1024.79,2074.99,3476.62,3230.83,3507.46,599.86,622.52,7.86,0000 0000 0000 0000 000000
2015-11-08 03:12:50,0.12,0.43,0.00,12.63,17.29,21.33,15.31,49.44,1024.80,2074.99,3474.38,3228.35,3504.78,599.81,622.32,7.91,0000 0000 0000 0000 000000
2015-11-08 03:17:51,0.13,0.44,0.00,12.63,17.29,21.33,15.34,49.40,1024.88,2074.99,3472.17,3225.95,3502.11,599.98,622.53,7.96,0000 0000 0000 0000 000000
2015-11-08 03:22:52,0.13,0.45,0.00,12.64,17.29,21.31,15.24,49.56,1024.65,2074.99,3470.01,3223.84,3499.80,599.94,622.47,8.01,0000 0000 0000 0000 000000
2015-11-08 03:27:53,0.13,0.45,0.00,12.65,17.29,21.29,15.18,49.45,1024.48,2074.99,3467.57,3221.47,3496.91,599.63,622.05,8.06,0000 0000 0000 0000 000000
2015-11-08 03:32:55,0.10,0.46,0.00,12.65,17.29,21.28,15.25,49.58,1024.69,2074.99,3465.78,3219.71,3494.96,600.13,622.66,8.11,0000 0000 0000 0000 000000
2015-11-08 03:37:56,0.13,0.46,0.00,12.65,17.29,21.32,15.29,49.62,1024.57,2074.99,3463.53,3217.35,3492.37,599.73,622.26,8.16,0000 0000 0000 0000 000000
2015-11-08 03:42:57,0.19,0.47,0.00,12.67,17.29,21.26,15.32,49.73,1024.47,2074.99,3460.79,3214.51,3489.07,600.10,622.46,8.21,0000 0000 0000 0000 000000
2015-11-08 03:47:58,0.13,0.48,0.00,12.67,17.29,21.31,15.25,49.56,1024.51,2074.99,3458.15,3211.78,3485.81,599.74,622.11,8.26,0000 0000 0000 0000 000000
2015-11-08 03:52:59,0.11,0.49,0.00,12.66,17.29,21.36,15.33,49.54,1024.44,2074.98,3456.23,3209.74,3483.54,600.14,622.53,8.31,0000 0000 0000 0000 000000
2015-11-08 03:58:01,0.08,0.49,0.00,12.65,17.30,21.33,15.26,49.50,1024.43,2074.98,3454.77,3208.44,3481.93,600.16,622.49,8.36,0000 0000 0000 0000 000000
2015-11-08 04:03:02,0.10,0.50,0.00,12.64,17.31,21.32,15.20,49.58,1024.43,2074.97,3453.06,3206.73,3480.05,599.78,622.15,8.41,0000 0000 0000 0000 000000
2015-11-08 04:08:03,0.07,0.50,0.00,12.64,17.31,21.33,15.30,49.57,1024.43,2074.97,3451.35,3205.12,3478.14,599.96,622.34,8.46,0000 0000 0000 0000 000000
2015-11-08 04:13:05,0.10,0.51,0.00,12.63,17.32,21.34,15.37,49.54,1024.40,2074.97,3449.64,3203.63,3476.41,600.37,622.67,8.51,0000 0000 0000 0000 000000
2015-11-08 04:18:06,0.12,0.51,0.00,12.62,17.32,21.33,15.35,49.72,1024.38,2074.98,3447.71,3201.69,3474.20,600.04,622.56,8.56,0000 0000 0000 0000 000000
2015-11-08 04:23:07,0.14,0.52,0.00,12.62,17.32,21.34,15.24,49.62,1024.36,2074.97,3445.26,3199.14,3471.33,599.96,622.39,8.61,0000 0000 0000 0000 000000
2015-11-08 04:28:09,0.10,0.52,0.00,12.59,17.32,21.23,15.24,49.67,1024.43,2074.98,3443.37,3197.14,3469.09,599.99,622.45,8.66,0000 0000 0000 0000 000000
2015-11-08 04:33:10,0.11,0.53,0.00,12.58,17.32,21.35,15.27,49.66,1024.43,2074.98,3441.47,3195.18,3466.85,600.09,622.56,8.71,0000 0000 0000 0000 000000
2015-11-08 04:38:12,0.07,0.53,0.00,12.57,17.31,21.32,15.35,49.70,1024.43,2074.98,3439.97,3193.83,3465.26,600.14,622.69,8.76,0000 0000 0000 0000 000000
2015-11-08 04:43:13,0.08,0.54,0.00,12.56,17.31,21.28,15.25,49.58,1024.43,2074.99,3438.59,3192.62,3463.80,599.87,622.46,8.81,0000 0000 0000 0000 000000
2015-11-08 04:48:15,0.08,0.54,0.00,12.53,17.30,21.32,15.31,49.76,1024.32,2074.97,3437.01,3191.12,3462.04,599.99,622.61,8.86,0000 0000 0000 0000 000000
2015-11-08 04:53:16,0.10,0.55,0.00,12.52,17.29,21.35,15.34,49.59,1024.16,2074.98,3435.34,3189.42,3460.19,599.88,622.36,8.91,0000 0000 0000 0000 000000
2015-11-08 04:58:17,0.07,0.55,0.00,12.51,17.29,21.33,15.41,49.67,1024.33,2074.96,3433.90,3188.06,3458.63,600.14,622.81,8.96,0000 0000 0000 0000 000000
2015-11-08 05:03:18,0.08,0.56,0.00,12.49,17.29,21.28,15.33,49.54,1024.40,2074.97,3432.59,3186.85,3457.24,600.46,623.14,9.01,0000 0000 0000 0000 000000
2015-11-08 05:08:20,0.07,0.56,0.00,12.49,17.28,21.32,15.34,49.52,1024.37,2074.98,3431.24,3185.65,3455.87,600.15,622.91,9.06,0000 0000 0000 0000 000000
2015-11-08 05:13:21,0.08,0.56,0.00,12.49,17.27,21.24,15.28,49.63,1024.33,2074.98,3429.77,3184.40,3454.43,599.81,622.46,9.11,0000 0000 0000 0000 000000
2015-11-08 05:18:22,0.09,0.57,0.00,12.47,17.27,21.30,15.24,49.46,1024.32,2074.98,3428.30,3182.96,3452.84,599.82,622.54,9.16,0000 0000 0000 0000 000000
2015-11-08 05:23:24,0.08,0.57,0.00,12.47,17.27,21.30,15.32,49.52,1024.02,2074.99,3426.65,3181.34,3451.04,599.96,622.45,9.21,0000 0000 0000 0000 000000
2015-11-08 05:28:25,0.09,0.58,0.00,12.47,17.25,21.26,15.32,49.64,1023.99,2074.99,3425.20,3179.90,3449.31,600.19,622.66,9.26,0000 0000 0000 0000 000000
2015-11-08 05:33:26,0.09,0.58,0.00,12.47,17.24,21.25,15.23,49.52,1024.21,2074.99,3423.57,3178.34,3447.47,599.76,622.39,9.31,0000 0000 0000 0000 000000
2015-11-08 05:38:27,0.10,0.59,0.00,12.44,17.24,21.23,15.30,49.33,1024.37,2074.99,3421.97,3176.73,3445.72,599.94,622.72,9.36,0000 0000 0000 0000 000000
2015-11-08 05:43:29,0.10,0.59,0.00,12.44,17.24,21.25,15.28,49.54,1024.05,2074.99,3420.15,3175.09,3443.80,599.98,622.65,9.41,0000 0000 0000 0000 000000
2015-11-08 05:48:30,0.10,0.60,0.00,12.44,17.23,21.24,15.32,49.46,1024.24,2074.99,3418.22,3173.18,3441.70,600.22,622.91,9.46,0000 0000 0000 0000 000000
2015-11-08 05:53:32,0.11,0.60,0.00,12.42,17.22,21.16,15.27,49.42,1024.03,2075.00,3416.55,3171.49,3439.89,600.15,622.77,9.51,0000 0000 0000 0000 000000
2015-11-08 05:58:33,0.12,0.61,0.00,12.42,17.22,21.19,15.42,49.59,1024.12,2075.00,3414.48,3169.17,3437.37,599.97,622.65,9.56,0000 0000 0000 0000 000000
2015-11-08 06:03:34,0.11,0.61,0.00,12.42,17.22,21.24,15.29,49.55,1024.00,2075.00,3412.43,3167.26,3435.24,599.95,622.55,9.61,0000 0000 0000 0000 000000
2015-11-08 06:08:35,0.31,0.63,0.00,12.41,17.20,21.16,15.29,49.77,1023.94,2075.00,3408.25,3162.31,3429.93,599.88,622.43,9.66,0000 0000 0000 0000 000000
2015-11-08 06:13:36,0.16,0.64,0.00,12.40,17.19,21.16,15.34,49.51,1024.13,2075.01,3405.21,3158.55,3425.85,600.27,623.07,9.71,0000 0000 0000 0000 000000
2015-11-08 06:18:38,0.07,0.64,0.00,12.39,17.19,21.25,15.36,49.53,1023.95,2075.00,3403.69,3157.26,3424.36,600.12,622.74,9.76,0000 0000 0000 0000 000000
2015-11-08 06:23:39,0.10,0.65,0.00,12.37,17.19,21.20,15.21,49.46,1023.94,2075.02,3402.14,3155.73,3422.57,600.04,622.74,9.82,0000 0000 0000 0000 000000
2015-11-08 06:28:40,0.12,0.65,0.00,12.37,17.17,21.17,15.24,49.53,1023.94,2075.01,3400.11,3153.84,3420.32,600.03,622.64,9.87,0000 0000 0000 0000 000000
2015-11-08 06:33:42,0.10,0.66,0.00,12.37,17.17,21.15,15.44,49.70,1023.89,2075.01,3398.27,3152.07,3418.27,600.31,622.97,9.92,0000 0000 0000 0000 000000
2015-11-08 06:38:44,0.11,0.67,0.00,12.37,17.17,21.18,15.25,49.59,1023.92,2075.01,3396.18,3150.12,3416.07,599.56,622.26,9.97,0000 0000 0000 0000 000000
2015-11-08 06:43:45,0.11,0.67,0.00,12.34,17.15,21.23,15.36,49.57,1023.93,2075.01,3394.19,3148.22,3413.95,600.34,622.99,10.02,0000 0000 0000 0000 000000
2015-11-08 06:48:46,0.21,0.68,0.00,12.34,17.14,21.16,15.29,49.68,1023.73,2075.01,3391.41,3145.16,3410.64,600.06,622.68,10.07,0000 0000 0000 0000 000000
2015-11-08 06:53:48,0.14,0.69,0.00,12.34,17.14,21.12,15.20,49.48,1023.77,2075.02,3388.83,3142.14,3407.49,599.86,622.53,10.12,0000 0000 0000 0000 000000
2015-11-08 06:58:49,0.19,0.70,0.00,12.34,17.13,21.16,15.26,49.58,1023.48,2075.01,3385.99,3139.37,3404.39,599.88,622.45,10.17,0000 0000 0000 0000 000000
2015-11-08 07:03:50,0.32,0.71,0.00,12.34,17.12,21.06,15.23,49.69,1023.46,2075.04,3381.17,3134.22,3398.41,599.96,622.49,10.22,0000 0000 0000 0000 000000
2015-11-08 07:08:52,0.24,0.72,0.00,12.33,17.12,21.14,15.32,49.62,1023.46,2075.02,3377.04,3129.67,3393.46,600.15,622.64,10.27,0000 0000 0000 0000 000000
2015-11-08 07:13:53,0.17,0.74,0.00,12.32,17.12,21.09,15.33,49.45,1023.50,2075.01,3374.12,3126.17,3390.01,600.14,622.63,10.32,0000 0000 0000 0000 000000
2015-11-08 07:18:55,0.13,0.74,0.00,12.32,17.10,21.12,15.32,49.76,1023.28,2075.03,3371.91,3124.11,3387.76,600.22,622.64,10.37,0000 0000 0000 0000 000000
2015-11-08 07:23:56,0.14,0.75,0.00,12.32,17.09,21.11,15.18,49.63,1023.44,2075.04,3369.48,3121.63,3384.98,599.70,622.17,10.42,0000 0000 0000 0000 000000
2015-11-08 07:28:57,0.16,0.75,0.00,12.29,17.09,21.10,15.28,49.63,1023.46,2075.10,3367.21,3119.46,3382.57,599.94,622.49,10.47,0000 0000 0000 0000 000000
2015-11-08 07:33:58,0.14,0.76,0.00,12.29,17.09,21.14,15.23,49.67,1023.40,2075.08,3364.39,3116.45,3379.40,599.84,622.36,10.52,0000 0000 0000 0000 000000
2015-11-08 07:39:00,0.22,0.78,0.00,12.29,17.07,21.11,15.22,49.52,1023.44,2075.06,3361.16,3112.86,3375.60,599.95,622.49,10.57,0000 0000 0000 0000 000000
2015-11-08 07:44:01,0.10,0.78,0.00,12.29,17.07,21.07,15.29,49.60,1023.45,2075.09,3359.16,3111.09,3373.58,600.07,622.63,10.62,0000 0000 0000 0000 000000
2015-11-08 07:49:03,0.12,0.79,0.00,12.29,17.07,21.05,15.32,49.50,1023.65,2075.21,3357.27,3109.52,3371.71,600.28,622.94,10.67,0000 0000 0000 0000 000000
2015-11-08 07:54:04,0.08,0.79,0.00,12.27,17.06,21.03,15.34,49.57,1023.74,2075.18,3355.34,3107.91,3369.93,600.01,622.93,10.72,0000 0000 0000 0000 000000
2015-11-08 07:59:05,0.12,0.80,0.00,12.27,17.05,21.06,15.30,49.56,1023.86,2075.42,3353.36,3106.30,3368.10,599.84,622.67,10.77,0000 0000 0000 0000 000000
2015-11-08 08:04:06,0.13,0.80,0.00,12.28,17.04,21.10,15.35,49.52,1023.88,2075.53,3351.30,3104.62,3366.12,599.95,622.80,10.82,0000 0000 0000 0000 000000
2015-11-08 08:09:08,0.09,0.81,0.00,12.29,17.04,21.01,15.28,49.42,1023.93,2075.71,3349.63,3103.26,3364.55,599.79,622.76,10.87,0000 0000 0000 0000 000000
2015-11-08 08:14:09,0.09,0.81,0.00,12.30,17.04,21.02,15.26,49.47,1023.94,2075.75,3347.86,3101.92,3362.92,600.06,622.81,10.92,0000 0000 0000 0000 000000
2015-11-08 08:19:10,0.09,0.82,0.00,12.32,17.04,21.07,15.19,49.44,1023.92,2075.78,3346.01,3100.41,3361.19,600.02,622.84,10.97,0000 0000 0000 0000 000000
2015-11-08 08:24:11,0.09,0.82,0.00,12.29,17.02,21.06,15.28,49.48,1023.81,2075.57,3344.09,3098.76,3359.40,599.82,622.58,11.02,0000 0000 0000 0000 000000
2015-11-08 08:29:13,0.09,0.83,0.00,12.29,17.02,21.00,15.25,49.37,1023.78,2075.62,3342.23,3097.29,3357.63,599.94,622.77,11.07,0000 0000 0000 0000 000000
2015-11-08 08:34:14,0.09,0.83,0.00,12.31,17.02,21.01,15.29,49.58,1023.82,2075.59,3340.36,3095.71,3355.90,600.04,622.82,11.12,0000 0000 0000 0000 000000
2015-11-08 08:39:15,0.13,0.84,0.00,12.33,17.02,21.07,15.26,49.51,1023.57,2075.67,3338.21,3093.90,3353.88,599.91,622.44,11.17,0000 0000 0000 0000 000000
2015-11-08 08:44:17,0.11,0.85,0.00,12.35,17.02,21.01,15.29,49.64,1023.63,2075.78,3336.13,3092.01,3351.76,600.14,622.67,11.22,0000 0000 0000 0000 000000
2015-11-08 08:49:18,0.10,0.85,0.00,12.36,17.02,21.01,15.22,49.60,1023.69,2075.80,3334.23,3090.53,3350.04,599.85,622.39,11.27,0000 0000 0000 0000 000000
2015-11-08 08:54:19,0.08,0.86,0.00,12.37,17.02,21.01,15.34,49.56,1023.49,2075.74,3332.43,3089.05,3348.37,600.12,622.55,11.32,0000 0000 0000 0000 000000
2015-11-08 08:59:20,0.14,0.86,0.00,12.35,17.01,21.01,15.19,49.68,1023.50,2075.86,3330.24,3087.15,3346.22,599.66,622.11,11.37,0000 0000 0000 0000 000000
2015-11-08 09:04:22,0.14,0.87,0.00,12.34,17.00,21.00,15.19,49.74,1023.45,2075.92,3328.08,3085.15,3344.07,599.82,622.23,11.42,0000 0000 0000 0000 000000
2015-11-08 09:09:23,0.11,0.87,0.00,12.35,17.00,21.00,15.36,49.83,1023.45,2075.89,3325.88,3083.16,3341.83,600.19,622.60,11.47,0000 0000 0000 0000 000000
2015-11-08 09:14:24,0.09,0.88,0.00,12.37,17.00,20.99,15.24,49.57,1023.45,2075.91,3324.05,3081.70,3340.17,600.16,622.58,11.52,0000 0000 0000 0000 000000
2015-11-08 09:19:26,0.08,0.88,0.00,12.37,17.00,21.04,15.33,49.77,1023.44,2075.86,3322.29,3080.50,3338.63,600.41,622.82,11.57,0000 0000 0000 0000 000000
2015-11-08 09:24:27,0.09,0.89,0.00,12.39,17.00,21.06,15.20,49.69,1023.45,2075.78,3320.37,3078.94,3336.90,599.86,622.25,11.62,0000 0000 0000 0000 000000
2015-11-08 09:29:28,0.11,0.89,0.00,12.39,17.00,21.01,15.38,49.82,1023.45,2075.88,3318.37,3077.46,3335.14,600.45,622.87,11.67,0000 0000 0000 0000 000000
2015-11-08 09:34:30,0.09,0.90,0.00,12.39,17.01,20.99,15.19,49.58,1023.47,2075.86,3316.44,3076.03,3333.46,599.96,622.23,11.72,0000 0000 0000 0000 000000
2015-11-08 09:39:31,0.09,0.90,0.00,12.41,17.01,20.95,15.15,49.54,1023.47,2075.88,3314.64,3074.69,3331.91,599.87,622.16,11.77,0000 0000 0000 0000 000000
2015-11-08 09:44:32,0.16,0.91,0.00,12.41,17.01,20.96,15.29,49.84,1023.45,2075.90,3312.30,3072.47,3329.57,600.08,622.39,11.82,0000 0000 0000 0000 000000
2015-11-08 09:49:34,0.11,0.92,0.00,12.38,17.02,21.08,15.22,49.60,1023.48,2075.84,3310.01,3070.36,3327.18,599.93,622.48,11.87,0000 0000 0000 0000 000000
2015-11-08 09:54:35,0.07,0.92,0.00,12.37,17.02,21.03,15.29,49.53,1023.59,2075.86,3308.23,3068.94,3325.61,600.22,622.71,11.93,0000 0000 0000 0000 000000
2015-11-08 09:59:36,0.12,0.93,0.00,12.39,17.02,21.06,15.33,49.53,1023.70,2075.84,3305.99,3067.01,3323.52,600.09,622.57,11.98,0000 0000 0000 0000 000000
2015-11-08 10:04:37,0.09,0.93,0.00,12.38,17.02,21.03,15.28,49.47,1023.58,2075.68,3304.05,3065.48,3321.77,599.91,622.29,12.03,0000 0000 0000 0000 000000
2015-11-08 10:09:39,0.10,0.94,0.00,12.37,17.02,21.03,15.28,49.46,1023.48,2075.64,3302.03,3063.87,3319.92,600.01,622.28,12.08,0000 0000 0000 0000 000000
2015-11-08 10:14:40,0.08,0.94,0.00,12.39,17.02,21.07,15.37,49.58,1023.49,2075.66,3300.28,3062.54,3318.41,600.27,622.58,12.13,0000 0000 0000 0000 000000
2015-11-08 10:19:41,0.08,0.95,0.00,12.39,17.02,21.01,15.40,49.50,1023.46,2075.49,3298.39,3061.11,3316.73,600.28,622.56,12.18,0000 0000 0000 0000 000000
2015-11-08 10:24:43,0.10,0.95,0.00,12.40,17.02,21.02,15.39,49.33,1023.45,2075.49,3296.52,3059.69,3315.04,600.48,622.76,12.23,0000 0000 0000 0000 000000
2015-11-08 10:29:44,0.09,0.96,0.00,12.42,17.03,20.99,15.28,49.49,1023.42,2075.38,3294.50,3058.15,3313.31,600.03,622.30,12.28,0000 0000 0000 0000 000000
2015-11-08 10:34:46,0.13,0.96,0.00,12.40,17.04,21.00,15.32,49.58,1023.06,2075.54,3292.29,3056.31,3311.24,599.92,621.99,12.33,0000 0000 0000 0000 000000
2015-11-08 10:39:47,0.14,0.97,0.00,12.42,17.04,21.05,15.32,49.54,1022.98,2075.38,3289.66,3054.16,3308.68,599.63,621.60,12.38,0000 0000 0000 0000 000000
2015-11-08 10:44:48,0.13,0.98,0.00,12.45,17.04,21.01,15.27,49.47,1022.99,2075.44,3287.28,3051.92,3306.22,599.98,621.91,12.43,0000 0000 0000 0000 000000
2015-11-08 10:49:49,0.13,0.98,0.00,12.48,17.04,20.98,15.19,49.54,1022.96,2075.32,3284.93,3049.90,3303.95,599.84,621.72,12.48,0000 0000 0000 0000 000000
2015-11-08 10:54:51,0.13,0.99,0.00,12.50,17.06,21.03,15.28,49.57,1022.95,2075.25,3282.31,3047.72,3301.39,599.87,621.59,12.53,0000 0000 0000 0000 000000
2015-11-08 10:59:52,0.14,1.00,0.00,12.49,17.07,21.02,15.21,49.75,1022.78,2075.08,3279.82,3045.39,3298.88,599.67,621.37,12.58,0000 0000 0000 0000 000000
2015-11-08 11:04:54,0.12,1.00,0.00,12.49,17.07,21.03,15.19,49.58,1022.71,2075.04,3277.47,3043.22,3296.54,599.80,621.45,12.63,0000 0000 0000 0000 000000
2015-11-08 11:09:55,0.16,1.01,0.00,12.49,17.07,21.08,15.28,49.67,1022.49,2075.05,3275.00,3040.90,3293.99,599.85,621.38,12.68,0000 0000 0000 0000 000000
2015-11-08 11:14:56,0.15,1.02,0.00,12.49,17.07,21.04,15.23,49.73,1022.48,2075.05,3272.27,3038.28,3291.16,599.92,621.44,12.73,0000 0000 0000 0000 000000
2015-11-08 11:19:57,0.12,1.03,0.00,12.49,17.07,21.08,15.28,49.68,1022.48,2075.13,3270.06,3036.37,3289.04,599.99,621.55,12.78,0000 0000 0000 0000 000000
2015-11-08 11:24:58,0.12,1.03,0.00,12.49,17.08,21.07,15.24,49.62,1022.48,2075.10,3267.79,3034.41,3286.81,599.92,621.39,12.83,0000 0000 0000 0000 000000
2015-11-08 11:30:00,0.15,1.04,0.00,12.49,17.09,21.10,15.25,49.56,1022.60,2075.08,3265.12,3031.98,3284.09,599.86,621.53,12.88,0000 0000 0000 0000 000000
2015-11-08 11:35:01,0.11,1.05,0.00,12.49,17.09,21.10,15.30,49.52,1022.87,2075.06,3263.28,3029.83,3282.24,599.72,621.47,12.93,0000 0000 0000 0000 000000
2015-11-08 11:40:02,0.10,1.05,0.00,12.49,17.09,21.13,15.29,49.42,1022.96,2075.03,3261.41,3028.06,3280.49,600.11,622.02,12.98,0000 0000 0000 0000 000000
2015-11-08 11:45:04,0.12,1.06,0.00,12.48,17.09,21.10,15.25,49.40,1022.98,2075.05,3259.32,3026.42,3278.53,599.96,621.83,13.03,0000 0000 0000 0000 000000
2015-11-08 11:50:05,0.12,1.06,0.00,12.49,17.09,21.10,15.27,49.34,1022.96,2075.02,3257.03,3024.48,3276.33,600.00,621.83,13.08,0000 0000 0000 0000 000000
2015-11-08 11:55:06,0.10,1.07,0.00,12.48,17.10,21.06,15.25,49.38,1022.98,2075.02,3255.11,3022.86,3274.50,599.79,621.62,13.13,0000 0000 0000 0000 000000
2015-11-08 12:00:08,0.09,1.07,0.00,12.51,17.11,21.01,15.17,49.42,1022.97,2075.00,3253.23,3021.43,3272.72,599.65,621.48,13.18,0000 0000 0000 0000 000000
2015-11-08 12:05:09,0.09,1.08,0.00,12.51,17.12,21.07,15.21,49.47,1022.95,2075.00,3251.39,3020.06,3271.14,599.91,621.67,13.23,0000 0000 0000 0000 000000
2015-11-08 12:10:11,0.10,1.08,0.00,12.53,17.12,21.10,15.27,49.48,1022.97,2075.00,3249.51,3018.64,3269.49,599.95,621.68,13.28,0000 0000 0000 0000 000000
2015-11-08 12:15:12,0.09,1.09,0.00,12.57,17.12,21.12,15.26,49.42,1023.08,2075.00,3247.65,3017.26,3267.83,600.10,621.84,13.33,0000 0000 0000 0000 000000
2015-11-08 12:20:14,0.09,1.09,0.00,12.54,17.14,21.07,15.18,49.45,1022.89,2075.00,3245.84,3015.86,3266.31,599.81,621.34,13.38,0000 0000 0000 0000 000000
2015-11-08 12:25:15,0.09,1.10,0.00,12.58,17.14,21.07,15.34,49.60,1023.03,2075.00,3244.15,3014.55,3264.70,600.26,621.85,13.43,0000 0000 0000 0000 000000
2015-11-08 12:30:16,0.08,1.10,0.00,12.57,17.14,21.13,15.32,49.52,1023.01,2075.00,3242.40,3013.23,3263.28,600.34,622.03,13.48,0000 0000 0000 0000 000000
2015-11-08 12:35:17,0.11,1.11,0.00,12.60,17.16,21.06,15.25,49.49,1023.06,2075.00,3240.43,3011.63,3261.61,600.03,621.75,13.53,0000 0000 0000 0000 000000
2015-11-08 12:40:19,0.08,1.11,0.00,12.59,17.17,21.07,15.33,49.67,1023.01,2074.99,3238.66,3010.34,3260.10,600.07,621.65,13.58,0000 0000 0000 0000 000000
2015-11-08 12:45:20,0.10,1.12,0.00,12.59,17.17,21.16,15.18,49.56,1022.99,2074.98,3236.85,3008.87,3258.58,599.68,621.28,13.63,0000 0000 0000 0000 000000
2015-11-08 12:50:21,0.09,1.12,0.00,12.64,17.18,21.17,15.29,49.51,1022.97,2074.98,3235.08,3007.57,3256.85,600.01,621.51,13.68,0000 0000 0000 0000 000000
2015-11-08 12:55:23,0.08,1.13,0.00,12.64,17.19,21.15,15.40,49.60,1022.95,2074.98,3233.31,3006.38,3255.35,600.12,621.62,13.73,0000 0000 0000 0000 000000